Tracking 18793 objects as of 25-September-2017
HD Live streaming from Space Station
objects crossing your sky now

COSMOS 1305

Track COSMOS 1305 now!
10-day predictions
COSMOS 1305 is classified as:


NORAD ID: 12818
Int'l Code: 1981-088A
Perigee: 1,003.1 km
Apogee: 13,498.4 km
Inclination: 63.3 °
Period: 263.7 minutes
Semi major axis: 13621 km
RCS: 12.474 m2 (large)
Launch date: September 11, 1981
Source: Commonwealth of Independent States (former USSR) (CIS)
Launch site: PLESETSK MISSILE AND SPACE COMPLEX (PKMTR)
aabbcc
Your satellite tracking list
Your tracking list is empty





NASA's NSSDC Master Catalog

Two Line Element Set (TLE):
1 12818U 81088A   17267.27375679 +.00000009 +00000-0 +00000-0 0  9993
2 12818 063.2593 252.5372 4586533 210.5833 247.6871 05.46077859718655
Source of the keplerian elements: AFSPC